TimeMDT,TemperatureF,Dew PointF,Humidity,Sea Level PressureIn,VisibilityMPH,Wind Direction,Wind SpeedMPH,Gust SpeedMPH,PrecipitationIn,Events,Conditions,WindDirDegrees,DateUTC
12:53 AM,70.0,48.0,46,30.02,10.0,NW,3.5,-,N/A,,Clear,310,2013-07-02 06:53:00
1:53 AM,66.9,46.0,47,30.03,10.0,Calm,Calm,-,N/A,,Clear,0,2013-07-02 07:53:00
2:53 AM,66.0,46.9,50,30.03,10.0,Calm,Calm,-,N/A,,Clear,0,2013-07-02 08:53:00
3:53 AM,66.0,48.0,52,30.03,10.0,Calm,Calm,-,N/A,,Clear,0,2013-07-02 09:53:00
4:53 AM,66.0,46.9,50,30.04,10.0,Calm,Calm,-,N/A,,Clear,0,2013-07-02 10:53:00
5:53 AM,62.1,46.9,58,30.06,10.0,ESE,3.5,-,N/A,,Clear,120,2013-07-02 11:53:00
6:53 AM,64.9,46.9,52,30.07,10.0,Calm,Calm,-,N/A,,Clear,0,2013-07-02 12:53:00
8:53 AM,75.9,48.9,38,30.06,10.0,Calm,Calm,-,N/A,,Clear,0,2013-07-02 14:53:00
9:53 AM,79.0,48.0,34,30.05,10.0,West,4.6,-,N/A,,Clear,270,2013-07-02 15:53:00
10:53 AM,82.9,46.9,28,30.03,10.0,Variable,3.5,-,N/A,,Clear,0,2013-07-02 16:53:00
11:53 AM,88.0,45.0,22,30.01,10.0,Calm,Calm,-,N/A,,Clear,0,2013-07-02 17:53:00
12:53 PM,88.0,44.1,22,29.99,10.0,Calm,Calm,-,N/A,,Clear,0,2013-07-02 18:53:00
1:53 PM,91.9,42.1,18,29.97,10.0,Variable,4.6,-,N/A,,Clear,0,2013-07-02 19:53:00
2:53 PM,93.9,39.9,15,29.95,10.0,WNW,9.2,-,N/A,,Clear,300,2013-07-02 20:53:00
3:53 PM,96.1,37.9,13,29.92,10.0,North,12.7,23.0,N/A,,Clear,360,2013-07-02 21:53:00
4:53 PM,96.1,37.0,13,29.90,10.0,North,8.1,-,N/A,,Clear,360,2013-07-02 22:53:00
5:53 PM,96.1,41.0,15,29.88,10.0,NW,11.5,-,N/A,,Clear,320,2013-07-02 23:53:00
6:53 PM,95.0,39.9,15,29.86,10.0,NNW,11.5,20.7,N/A,,Clear,340,2013-07-03 00:53:00
7:53 PM,93.0,36.0,13,29.86,10.0,NNW,17.3,-,N/A,,Clear,330,2013-07-03 01:53:00
8:53 PM,87.1,37.9,18,29.85,10.0,NNW,16.1,24.2,N/A,,Clear,330,2013-07-03 02:53:00
9:53 PM,84.0,41.0,22,29.85,10.0,NNW,12.7,-,N/A,,Clear,330,2013-07-03 03:53:00
10:53 PM,78.1,41.0,27,29.86,10.0,WNW,3.5,-,N/A,,Clear,290,2013-07-03 04:53:00
11:53 PM,73.0,44.1,35,29.87,10.0,South,5.8,-,N/A,,Clear,170,2013-07-03 05:53:00